Location: Mercogliano
(40.9167°N, 14.7333°E)
Time: 22:06:21
(UTC+00:00)

CZ-2C R/B - Pass Details

Date: 23 January 2021
Orbit: 785 x 870 km, 98.2° (Epoch: 06 March)

Event Time Altitude Azimuth Distance (km) Brightness Sun altitude
Exits shadow 20:11:14 12° 308° (NW) 2,372 5.5 -45.7°
Maximum altitude 20:11:45 12° 302° (WNW) 2,363 5.5 -45.8°
Drops below altitude 10° 20:13:46 10° 281° (W) 2,510 5.7 -46.2°
Sets 20:17:48 0° 252° (WSW) 3,449 6.4 -46.9°
